Back to catalog

ATLAS 5 CENTAUR DEB

LostHEO
NORAD 46651·DEBRIS·🇺🇸 United States

Launched Sep 17, 2014 from Cape Canaveral Space Force Station

Loading…

Next Passes (next 24 hours)

TLE

StaleSource: Space-Track

Epoch: Mar 26, 2024, 08:10 UTC

1 46651U 14055DB  24086.34036259 -.00000082  00000-0  00000-0 0  9990
2 46651  20.2392 235.3552 4518243 356.4851   0.9955  1.78562764 18807

Track ATLAS 5 CENTAUR DEB in real time with AllMySat

Download on the App Store